Regional Weather Roundup
Issued by NWS

Home | Current Version | Previous Version | Text Only | Print | Product List | Glossary Off
Versions: 1 2 3 4 5 6 7 8 9 10 11 12 13 14 15 16 17 18 19 20 21 22 23 24 25 26 27 28 29 30 31 32 33 34 35 36 37 38 39 40 41 42 43 44 45 46 47 48 49 50

000
ASUS43 KLOT 271208
RWRIL

ILLINOIS REGIONAL WEATHER ROUNDUP
NATIONAL WEATHER SERVICE CHICAGO/ROMEOVILLE IL
700 AM CDT MON MAR 27 2017

NOTE: "FAIR" INDICATES FEW OR NO CLOUDS BELOW 12,000 FEET WITH NO
SIGNIFICANT WEATHER AND/OR OBSTRUCTIONS TO VISIBILITY.

* THESE STATIONS ARE NOT UNDER NWS QUALITY CONTROL. THEY ALSO MAY NOT
  REPORT WEATHER SUCH AS PRECIPITATION OR FOG.

ILZ001-002-007-009-015-016-024-271300-
NORTHWEST ILLINOIS

CITY           SKY/WX    TMP DP  RH WIND       PRES   REMARKS
MOLINE         CLOUDY    48  45  89 CALM      29.91R
6HR MIN TEMP:  48; 6HR MAX TEMP:  49;

STERLING*      CLOUDY    47  46  97 NW5       29.93R FOG
SAVANNA*       CLOUDY    45  43  93 N3        29.92S FOG
$$

ILZ003-004-008-010-011-017-018-271300-
NORTH CENTRAL ILLINOIS

CITY           SKY/WX    TMP DP  RH WIND       PRES   REMARKS
ROCKFORD       CLOUDY    46  43  89 CALM      29.94R
6HR MIN TEMP:  46; 6HR MAX TEMP:  47; 6HR PCP: TRACE;

FREEPORT*      FOG       43  43 100 CALM      29.94R VSB 1/2
ROCHELLE*      CLOUDY    46  46  98 CALM      29.92S FOG
DE KALB*       CLOUDY    45  45  99 CALM      29.92S FOG
PERU*          CLOUDY    47  46  95 CALM      29.93S FOG
$$

ILZ005-006-012>014-019>023-271300-
NORTHEAST ILLINOIS

CITY           SKY/WX    TMP DP  RH WIND       PRES   REMARKS
CHICAGO-OHARE  CLOUDY    49  47  93 W3        29.92R FOG
6HR MIN TEMP:  49; 6HR MAX TEMP:  52; 6HR PCP: TRACE;

CHICAGO-MIDWAY DRIZZLE   50  48  93 SW7       29.93R FOG
6HR MIN TEMP:  50; 6HR MAX TEMP:  51; 6HR PCP: TRACE;

AURORA         FOG       48  47  96 NW3       29.92R VSB 1/2
6HR MIN TEMP:  48; 6HR MAX TEMP:  51;

LANSING*       CLOUDY    48  48 100 W6        29.94R FOG
JOLIET*        CLOUDY    50  49  97 CALM      29.94R FOG
WAUKEGAN       CLOUDY    44  43  96 CALM      29.92R
6HR MIN TEMP:  43; 6HR MAX TEMP:  45;

DUPAGE AIRPORT CLOUDY    48  48 100 W6        29.91R FOG
6HR MIN TEMP:  48; 6HR MAX TEMP:  51; 6HR PCP: TRACE;

KANKAKEE*      CLOUDY    49  48  97 CALM      29.94S
WHEELING       CLOUDY    46  46 100 NW3       29.93R
6HR MIN TEMP:  46; 6HR MAX TEMP:  51; 6HR PCP: TRACE;

MORRIS*        CLOUDY    48  47  96 CALM      29.93R FOG
ROMEOVILLE*    CLOUDY    48  48 100 W5        29.94R
$$

LMZ740>746-271300-
SOUTHERN LAKE MICHIGAN

STATION/POSITION SKY/WX   TEMP    WIND        PRES    VSBY  WAVE
                          AIR SEA DIR/SP/G                  HT/PER
                          (F)     (DEG/KT/KT) (MB)    (MI)  (FT/S)
HARRISON CRIB              40      20/  2/  3   N/A
BURNHAM HARBOR             41     350/  2/  3   N/A
CALUMET HARBOR             49     210/  5/  9 1013.0R
BURNS HARBOR               50     230/  8/ 14 1014.6
MICHIGAN CITY              44     220/ 10/ 11   N/A
$$

ILZ025>027-034>036-040-047-049-050-058-095>099-271300-
WEST-CENTRAL ILLINOIS

CITY           SKY/WX    TMP DP  RH WIND       PRES   REMARKS
QUINCY         LGT RAIN  47  46  97 NE7       29.89R
GALESBURG*     CLOUDY    45  45 100 CALM      29.91S FOG
MACOMB*        FOG       46  46 100 NE3       29.92F VSB 1/4
JACKSONVILLE*  CLOUDY    47  45  95 E7        29.90R
PITTSFIELD*    CLOUDY    48  46  93 NE3       29.91R
$$

ILZ028>032-037-038-041>044-048-051>054-059>061-271300-
CENTRAL ILLINOIS

CITY           SKY/WX    TMP DP  RH WIND       PRES   REMARKS
PONTIAC        CLOUDY    48  47  98 CALM      29.94R FOG
BLOOMINGTON    FOG       46  46 100 VRB5      29.93R VSB 1/2
DECATUR        PTCLDY    42  41  96 E6        29.91F FOG
PEORIA         CLOUDY    49  47  93 CALM      29.92S
6HR MIN TEMP:  48; 6HR MAX TEMP:  49;

LACON*         CLOUDY    47  46  95 CALM      29.93R
LINCOLN*         N/A     46  46 100 CALM      29.92R FOG
SPRINGFIELD    CLOUDY    48  46  93 NE6       29.90S
6HR MIN TEMP:  45; 6HR MAX TEMP:  50;

TAYLORVILLE    CLOUDY    46  46 100 E6        29.91R
$$

ILZ033-039-045-046-055>057-062-063-271300-
EAST-CENTRAL ILLINOIS

CITY           SKY/WX    TMP DP  RH WIND       PRES   REMARKS
CHAMPAIGN      CLOUDY    42  40  92 E8        29.92S
RANTOUL*       FOG       47  46  99 SE3       29.93R VSB 1/2
MATTOON        MOCLDY    46  46 100 SE6       29.91S FOG
PARIS*           N/A     44  44 100 E5        29.93F THUNDER FOG
$$

ILZ079-100>102-271300-
SOUTHWEST ILLINOIS

CITY           SKY/WX    TMP DP  RH WIND       PRES   REMARKS
ALTON          MOCLDY    48  46  93 SE6       29.90R
CAHOKIA*       LGT RAIN  51  48  89 CALM      29.89R
SPARTA*        RAIN      54  50  87 S5        29.92R
$$

ILZ064>066-069>071-074>076-080>082-084>086-088>090-092>094-271300-
SOUTH-CENTRAL ILLINOIS

CITY           SKY/WX    TMP DP  RH WIND       PRES   REMARKS
CARBONDALE     RAIN      53  52  96 W8        29.93R FOG
6HR MIN TEMP:  45; 6HR MAX TEMP:  55; 6HR PCP:  0.03;

CAIRO*         CLOUDY    56  54  91 SE7G16    29.88R
EFFINGHAM*     CLOUDY    48  48 100 E3        29.93R
MARION         LGT RAIN  54  54 100 SE6       29.87F
MT. VERNON     CLOUDY    51  47  86 E6        29.88F
CENTRALIA*     CLOUDY    52  49  89 E5        29.87F
SALEM*         CLOUDY    52  47  84 SE5       29.89R
METROPOLIS*    RAIN      55  52  88 SE7       29.94R
$$

ILZ067-068-072-073-078-083-087-091-271300-
SOUTHEAST ILLINOIS

CITY           SKY/WX    TMP DP  RH WIND       PRES   REMARKS
LAWRENCEVILLE  CLOUDY    45  45 100 E6        29.94R
FLORA*         CLOUDY    49  47  92 SE6       29.92R
FAIRFIELD*     CLOUDY    50  47  92 E3        29.89F
HARRISBURG*    CLOUDY    53  50  89 E9        29.89S
ROBINSON*      FOG       40  40 100 CALM      29.94S VSB 1
CARMI*         CLOUDY    50  48  93 E6        29.90F
$$

ABBREVIATIONS USED IN REMARKS
   TC - TEMPERATURE IN CELSIUS
  WCI - WIND CHILL INDEX
   HX - HEAT INDEX
  VSB - VISIBILITY
$$





USA.gov is the U.S. government's official web portal to all federal, state and local government web resources and services.